Time,TemperatureF,DewpointF,PressureIn,WindDirection,WindDirectionDegrees,WindSpeedMPH,WindSpeedGustMPH,Humidity,HourlyPrecipIn,Conditions,Clouds,dailyrainin,SoftwareType,DateUTC
2013-04-21 00:01:00,46.8,46.0,30.26,SSW,202,0.0,1.2,98,0.00,,,0.00,Rainwise IP-100,2013-04-21 07:01:00,
2013-04-21 00:06:00,46.7,46.0,30.26,SSW,202,0.0,1.9,98,0.00,,,0.00,Rainwise IP-100,2013-04-21 07:06:00,
2013-04-21 00:11:00,46.6,46.0,30.26,SSW,202,0.0,1.2,98,0.00,,,0.00,Rainwise IP-100,2013-04-21 07:11:00,
2013-04-21 00:16:00,46.5,46.0,30.26,SSW,202,0.0,2.1,98,0.00,,,0.00,Rainwise IP-100,2013-04-21 07:16:00,
2013-04-21 00:21:00,46.5,46.0,30.26,South,180,0.0,3.5,97,0.00,,,0.00,Rainwise IP-100,2013-04-21 07:21:00,
2013-04-21 00:26:00,46.5,46.0,30.26,WSW,247,4.7,4.9,97,0.00,,,0.00,Rainwise IP-100,2013-04-21 07:26:00,
2013-04-21 00:31:00,46.4,45.0,30.26,SW,225,0.0,4.7,97,0.00,,,0.00,Rainwise IP-100,2013-04-21 07:31:00,
2013-04-21 00:36:00,46.4,45.0,30.26,SW,225,0.0,1.9,97,0.00,,,0.00,Rainwise IP-100,2013-04-21 07:36:00,
2013-04-21 00:41:00,46.4,45.0,30.26,SW,225,0.0,0.0,97,0.00,,,0.00,Rainwise IP-100,2013-04-21 07:41:00,
2013-04-21 00:46:00,46.3,45.0,30.26,South,180,1.2,1.9,97,0.00,,,0.00,Rainwise IP-100,2013-04-21 07:46:00,
2013-04-21 00:51:00,46.3,45.0,30.26,WSW,247,0.0,4.0,97,0.00,,,0.00,Rainwise IP-100,2013-04-21 07:51:00,
2013-04-21 00:56:00,46.3,45.0,30.26,WSW,247,2.1,3.0,97,0.00,,,0.00,Rainwise IP-100,2013-04-21 07:56:00,
2013-04-21 01:01:00,46.2,45.0,30.26,SSW,202,1.6,3.5,96,0.00,,,0.00,Rainwise IP-100,2013-04-21 08:01:00,
2013-04-21 01:06:00,46.1,45.0,30.26,SW,225,0.0,2.3,96,0.00,,,0.00,Rainwise IP-100,2013-04-21 08:06:00,
2013-04-21 01:11:00,46.1,45.0,30.26,SSW,202,1.4,2.6,96,0.00,,,0.00,Rainwise IP-100,2013-04-21 08:11:00,
2013-04-21 01:16:00,46.0,45.0,30.26,SSW,202,0.0,1.6,96,0.00,,,0.00,Rainwise IP-100,2013-04-21 08:16:00,
2013-04-21 01:21:00,45.9,45.0,30.26,WSW,247,1.2,1.4,96,0.06,,,0.01,Rainwise IP-100,2013-04-21 08:21:00,
2013-04-21 01:26:00,45.9,45.0,30.26,SSW,202,0.0,1.9,96,0.06,,,0.01,Rainwise IP-100,2013-04-21 08:26:00,
2013-04-21 01:31:00,45.8,45.0,30.26,SSW,202,2.1,3.0,96,0.00,,,0.01,Rainwise IP-100,2013-04-21 08:31:00,
2013-04-21 01:36:00,45.8,45.0,30.26,WSW,247,0.0,2.8,96,0.00,,,0.01,Rainwise IP-100,2013-04-21 08:36:00,
2013-04-21 01:41:00,45.8,45.0,30.26,South,180,1.4,1.4,96,0.00,,,0.01,Rainwise IP-100,2013-04-21 08:41:00,
2013-04-21 01:46:00,45.7,45.0,30.25,SSW,202,1.4,3.0,96,0.00,,,0.01,Rainwise IP-100,2013-04-21 08:46:00,
2013-04-21 01:51:00,45.6,45.0,30.26,SSW,202,1.2,2.8,96,0.00,,,0.01,Rainwise IP-100,2013-04-21 08:51:00,
2013-04-21 01:56:00,45.6,45.0,30.25,South,180,0.0,2.8,96,0.00,,,0.01,Rainwise IP-100,2013-04-21 08:56:00,
2013-04-21 02:01:00,45.5,45.0,30.25,WSW,247,0.0,1.4,96,0.00,,,0.01,Rainwise IP-100,2013-04-21 09:01:00,
2013-04-21 02:06:00,45.5,45.0,30.25,SW,225,0.0,2.1,96,0.00,,,0.01,Rainwise IP-100,2013-04-21 09:06:00,
2013-04-21 02:11:00,45.5,45.0,30.25,SSW,202,0.0,2.1,96,0.00,,,0.01,Rainwise IP-100,2013-04-21 09:11:00,
2013-04-21 02:16:00,45.5,45.0,30.25,SSW,202,0.0,1.9,96,0.00,,,0.01,Rainwise IP-100,2013-04-21 09:16:00,
2013-04-21 02:21:00,45.5,45.0,30.25,SSW,202,1.9,3.3,96,0.00,,,0.01,Rainwise IP-100,2013-04-21 09:21:00,
2013-04-21 02:26:00,45.5,45.0,30.25,SSW,202,1.4,3.5,96,0.00,,,0.01,Rainwise IP-100,2013-04-21 09:26:00,
2013-04-21 02:31:00,45.5,44.0,30.25,SW,225,0.0,3.5,95,0.00,,,0.01,Rainwise IP-100,2013-04-21 09:31:00,
2013-04-21 02:36:00,45.5,44.0,30.25,SSW,202,1.4,2.1,95,0.00,,,0.01,Rainwise IP-100,2013-04-21 09:36:00,
2013-04-21 02:41:00,45.5,44.0,30.25,WSW,247,0.0,3.3,95,0.00,,,0.01,Rainwise IP-100,2013-04-21 09:41:00,
2013-04-21 02:46:00,45.5,44.0,30.24,SSW,202,0.0,3.3,95,0.00,,,0.01,Rainwise IP-100,2013-04-21 09:46:00,
2013-04-21 02:51:00,45.5,44.0,30.24,SW,225,0.0,3.7,94,0.00,,,0.01,Rainwise IP-100,2013-04-21 09:51:00,
2013-04-21 02:56:00,45.5,44.0,30.25,SW,225,0.0,1.4,94,0.00,,,0.01,Rainwise IP-100,2013-04-21 09:56:00,
2013-04-21 03:01:00,45.4,44.0,30.25,South,180,0.0,1.2,95,0.00,,,0.01,Rainwise IP-100,2013-04-21 10:01:00,
2013-04-21 03:06:00,45.4,44.0,30.24,South,180,0.0,1.4,95,0.00,,,0.01,Rainwise IP-100,2013-04-21 10:06:00,
2013-04-21 03:11:00,45.4,44.0,30.25,SSW,202,2.1,3.0,95,0.00,,,0.01,Rainwise IP-100,2013-04-21 10:11:00,
2013-04-21 03:16:00,45.5,44.0,30.24,SSW,202,2.1,3.7,95,0.00,,,0.01,Rainwise IP-100,2013-04-21 10:16:00,
2013-04-21 03:21:00,45.5,44.0,30.24,WSW,247,0.0,3.5,94,0.00,,,0.01,Rainwise IP-100,2013-04-21 10:21:00,
2013-04-21 03:26:00,45.5,44.0,30.24,SSW,202,1.2,2.8,94,0.00,,,0.01,Rainwise IP-100,2013-04-21 10:26:00,
2013-04-21 03:31:00,45.5,44.0,30.24,WSW,247,0.0,4.2,94,0.00,,,0.01,Rainwise IP-100,2013-04-21 10:31:00,
2013-04-21 03:37:00,45.5,44.0,30.24,SSW,202,1.2,4.0,94,0.00,,,0.01,Rainwise IP-100,2013-04-21 10:37:00,
2013-04-21 03:42:00,45.5,44.0,30.24,WSW,247,0.0,5.8,93,0.00,,,0.01,Rainwise IP-100,2013-04-21 10:42:00,
2013-04-21 03:47:00,45.5,44.0,30.24,SW,225,0.0,2.8,93,0.00,,,0.01,Rainwise IP-100,2013-04-21 10:47:00,
2013-04-21 03:52:00,45.4,43.0,30.24,SSW,202,3.3,3.3,93,0.00,,,0.01,Rainwise IP-100,2013-04-21 10:52:00,
2013-04-21 03:57:00,45.4,43.0,30.24,South,180,1.2,4.7,93,0.00,,,0.01,Rainwise IP-100,2013-04-21 10:57:00,
2013-04-21 04:02:00,45.5,44.0,30.24,SSW,202,0.0,4.7,93,0.00,,,0.01,Rainwise IP-100,2013-04-21 11:02:00,
2013-04-21 04:07:00,45.4,43.0,30.24,SSW,202,0.0,1.9,93,0.00,,,0.01,Rainwise IP-100,2013-04-21 11:07:00,
2013-04-21 04:12:00,45.4,43.0,30.24,SSW,202,0.0,2.8,94,0.00,,,0.01,Rainwise IP-100,2013-04-21 11:12:00,
2013-04-21 04:17:00,45.4,43.0,30.24,SW,225,2.3,3.7,94,0.00,,,0.01,Rainwise IP-100,2013-04-21 11:17:00,
2013-04-21 04:22:00,45.4,43.0,30.24,SSW,202,0.0,4.2,94,0.00,,,0.01,Rainwise IP-100,2013-04-21 11:22:00,
2013-04-21 04:27:00,45.3,43.0,30.24,SW,225,0.0,3.5,94,0.00,,,0.01,Rainwise IP-100,2013-04-21 11:27:00,
2013-04-21 04:32:00,45.2,43.0,30.24,SSW,202,0.0,3.3,94,0.00,,,0.01,Rainwise IP-100,2013-04-21 11:32:00,
2013-04-21 04:37:00,45.1,43.0,30.24,SE,135,0.0,3.7,93,0.00,,,0.01,Rainwise IP-100,2013-04-21 11:37:00,
2013-04-21 04:42:00,45.1,43.0,30.24,SSW,202,0.0,2.8,93,0.00,,,0.01,Rainwise IP-100,2013-04-21 11:42:00,
2013-04-21 04:47:00,45.1,43.0,30.24,WSW,247,0.0,3.3,93,0.00,,,0.01,Rainwise IP-100,2013-04-21 11:47:00,
2013-04-21 04:52:00,45.1,43.0,30.24,SSW,202,0.0,2.3,93,0.00,,,0.01,Rainwise IP-100,2013-04-21 11:52:00,
2013-04-21 04:57:00,45.0,43.0,30.24,SSW,202,0.0,0.0,93,0.00,,,0.01,Rainwise IP-100,2013-04-21 11:57:00,
2013-04-21 05:02:00,44.9,43.0,30.24,SSW,202,0.0,2.3,93,0.00,,,0.01,Rainwise IP-100,2013-04-21 12:02:00,
2013-04-21 05:07:00,44.9,43.0,30.24,SSW,202,0.0,3.7,93,0.00,,,0.01,Rainwise IP-100,2013-04-21 12:07:00,
2013-04-21 05:12:00,44.9,43.0,30.24,SSW,202,1.2,2.3,93,0.00,,,0.01,Rainwise IP-100,2013-04-21 12:12:00,
2013-04-21 05:17:00,45.0,43.0,30.24,WSW,247,0.0,2.1,93,0.00,,,0.01,Rainwise IP-100,2013-04-21 12:17:00,
2013-04-21 05:22:00,45.0,43.0,30.23,SW,225,0.0,2.6,93,0.00,,,0.01,Rainwise IP-100,2013-04-21 12:22:00,
2013-04-21 05:27:00,45.0,43.0,30.24,WSW,247,0.0,2.1,93,0.00,,,0.01,Rainwise IP-100,2013-04-21 12:27:00,
2013-04-21 05:32:00,44.9,43.0,30.24,SSW,202,1.6,3.0,92,0.00,,,0.01,Rainwise IP-100,2013-04-21 12:32:00,
2013-04-21 05:37:00,44.9,43.0,30.24,SW,225,1.2,2.8,92,0.00,,,0.01,Rainwise IP-100,2013-04-21 12:37:00,
2013-04-21 05:42:00,45.0,43.0,30.24,SSW,202,0.0,2.1,92,0.00,,,0.01,Rainwise IP-100,2013-04-21 12:42:00,
2013-04-21 05:47:00,45.0,43.0,30.24,SW,225,0.0,2.1,92,0.00,,,0.01,Rainwise IP-100,2013-04-21 12:47:00,
2013-04-21 05:52:00,45.0,43.0,30.24,SW,225,0.0,1.9,92,0.00,,,0.01,Rainwise IP-100,2013-04-21 12:52:00,
2013-04-21 05:57:00,44.9,43.0,30.24,SSW,202,0.0,1.6,93,0.00,,,0.01,Rainwise IP-100,2013-04-21 12:57:00,
2013-04-21 06:02:00,44.9,43.0,30.24,SSW,202,0.0,2.1,93,0.00,,,0.01,Rainwise IP-100,2013-04-21 13:02:00,
2013-04-21 06:07:00,44.9,43.0,30.24,SSW,202,0.0,2.8,93,0.00,,,0.01,Rainwise IP-100,2013-04-21 13:07:00,
2013-04-21 06:12:00,44.9,43.0,30.24,SSW,202,1.2,2.6,93,0.00,,,0.01,Rainwise IP-100,2013-04-21 13:12:00,
2013-04-21 06:17:00,45.0,43.0,30.24,SW,225,1.2,2.6,92,0.00,,,0.01,Rainwise IP-100,2013-04-21 13:17:00,
2013-04-21 06:22:00,45.0,43.0,30.24,SW,225,1.2,3.0,92,0.00,,,0.01,Rainwise IP-100,2013-04-21 13:22:00,
2013-04-21 06:27:00,45.0,43.0,30.24,SSW,202,0.0,2.3,92,0.00,,,0.01,Rainwise IP-100,2013-04-21 13:27:00,
2013-04-21 06:32:00,44.9,43.0,30.23,SSW,202,0.0,0.0,92,0.00,,,0.01,Rainwise IP-100,2013-04-21 13:32:00,
2013-04-21 06:37:00,44.9,43.0,30.24,SSW,202,0.0,0.0,93,0.00,,,0.01,Rainwise IP-100,2013-04-21 13:37:00,
2013-04-21 06:42:00,44.8,43.0,30.24,SSW,202,0.0,2.6,93,0.00,,,0.01,Rainwise IP-100,2013-04-21 13:42:00,
2013-04-21 06:47:00,44.9,43.0,30.24,SW,225,0.0,3.3,93,0.00,,,0.01,Rainwise IP-100,2013-04-21 13:47:00,
2013-04-21 06:52:00,45.0,43.0,30.23,SW,225,1.9,2.8,92,0.00,,,0.01,Rainwise IP-100,2013-04-21 13:52:00,
2013-04-21 06:57:00,45.1,42.0,30.24,WSW,247,1.4,4.9,91,0.00,,,0.01,Rainwise IP-100,2013-04-21 13:57:00,
2013-04-21 07:02:00,45.1,42.0,30.24,SSW,202,0.0,2.6,91,0.00,,,0.01,Rainwise IP-100,2013-04-21 14:02:00,
2013-04-21 07:07:00,45.1,42.0,30.24,SSE,157,0.0,1.9,91,0.00,,,0.01,Rainwise IP-100,2013-04-21 14:07:00,
2013-04-21 07:12:00,45.1,42.0,30.24,SW,225,1.2,3.5,91,0.00,,,0.01,Rainwise IP-100,2013-04-21 14:12:00,
2013-04-21 07:17:00,45.1,42.0,30.24,SSW,202,0.0,2.6,91,0.00,,,0.01,Rainwise IP-100,2013-04-21 14:17:00,
2013-04-21 07:22:00,45.1,42.0,30.24,WSW,247,1.9,4.4,91,0.00,,,0.01,Rainwise IP-100,2013-04-21 14:22:00,
2013-04-21 07:27:00,45.1,42.0,30.24,SSW,202,1.6,5.6,90,0.00,,,0.01,Rainwise IP-100,2013-04-21 14:27:00,
2013-04-21 07:32:00,45.1,42.0,30.24,WSW,247,0.0,3.3,90,0.00,,,0.01,Rainwise IP-100,2013-04-21 14:32:00,
2013-04-21 07:37:00,45.1,42.0,30.24,SSW,202,0.0,3.3,91,0.00,,,0.01,Rainwise IP-100,2013-04-21 14:37:00,
2013-04-21 07:42:00,45.1,42.0,30.23,SW,225,0.0,2.6,91,0.00,,,0.01,Rainwise IP-100,2013-04-21 14:42:00,
2013-04-21 07:47:00,45.1,42.0,30.24,SW,225,0.0,3.0,90,0.00,,,0.01,Rainwise IP-100,2013-04-21 14:47:00,
2013-04-21 07:52:00,45.2,42.0,30.23,SW,225,2.3,3.7,90,0.00,,,0.01,Rainwise IP-100,2013-04-21 14:52:00,
2013-04-21 07:57:00,45.2,42.0,30.24,SSW,202,0.0,3.7,90,0.00,,,0.01,Rainwise IP-100,2013-04-21 14:57:00,
2013-04-21 08:02:00,45.3,42.0,30.24,SW,225,0.0,1.6,90,0.00,,,0.01,Rainwise IP-100,2013-04-21 15:02:00,
2013-04-21 08:07:00,45.3,42.0,30.24,SSW,202,0.0,3.7,90,0.00,,,0.01,Rainwise IP-100,2013-04-21 15:07:00,
2013-04-21 08:12:00,45.3,42.0,30.24,WSW,247,1.6,3.7,90,0.00,,,0.01,Rainwise IP-100,2013-04-21 15:12:00,
2013-04-21 08:17:00,45.4,42.0,30.24,SSW,202,3.0,4.2,89,0.00,,,0.01,Rainwise IP-100,2013-04-21 15:17:00,
2013-04-21 08:22:00,45.5,43.0,30.24,SW,225,1.4,4.4,89,0.00,,,0.01,Rainwise IP-100,2013-04-21 15:22:00,
2013-04-21 08:27:00,45.4,42.0,30.24,SW,225,1.4,3.3,89,0.00,,,0.01,Rainwise IP-100,2013-04-21 15:27:00,
2013-04-21 08:32:00,45.4,42.0,30.23,WSW,247,2.3,3.0,89,0.00,,,0.01,Rainwise IP-100,2013-04-21 15:32:00,
2013-04-21 08:37:00,45.5,43.0,30.23,SSE,157,0.0,3.0,89,0.00,,,0.01,Rainwise IP-100,2013-04-21 15:37:00,
2013-04-21 08:42:00,45.5,43.0,30.24,WSW,247,0.0,2.3,89,0.00,,,0.01,Rainwise IP-100,2013-04-21 15:42:00,
2013-04-21 08:47:00,45.5,43.0,30.24,WSW,247,0.0,1.6,90,0.00,,,0.01,Rainwise IP-100,2013-04-21 15:47:00,
2013-04-21 08:52:00,45.5,43.0,30.24,SSW,202,0.0,2.3,90,0.00,,,0.01,Rainwise IP-100,2013-04-21 15:52:00,
2013-04-21 08:57:00,45.5,43.0,30.24,SW,225,0.0,3.3,90,0.00,,,0.01,Rainwise IP-100,2013-04-21 15:57:00,
2013-04-21 09:02:00,45.5,43.0,30.24,SSW,202,0.0,2.1,90,0.00,,,0.01,Rainwise IP-100,2013-04-21 16:02:00,
2013-04-21 09:07:00,45.5,43.0,30.24,SSW,202,0.0,1.2,91,0.00,,,0.01,Rainwise IP-100,2013-04-21 16:07:00,
2013-04-21 09:12:00,45.4,42.0,30.23,South,180,2.1,2.1,91,0.00,,,0.01,Rainwise IP-100,2013-04-21 16:12:00,
2013-04-21 09:17:00,45.4,42.0,30.23,SSW,202,2.1,2.8,91,0.00,,,0.01,Rainwise IP-100,2013-04-21 16:17:00,
2013-04-21 09:22:00,45.4,43.0,30.23,WSW,247,1.6,2.8,92,0.00,,,0.01,Rainwise IP-100,2013-04-21 16:22:00,
2013-04-21 09:27:00,45.4,43.0,30.23,WSW,247,1.6,4.0,92,0.00,,,0.01,Rainwise IP-100,2013-04-21 16:27:00,
2013-04-21 09:32:00,45.4,43.0,30.23,South,180,1.2,2.1,92,0.06,,,0.02,Rainwise IP-100,2013-04-21 16:32:00,
2013-04-21 09:37:00,45.4,43.0,30.23,South,180,0.0,1.9,92,0.06,,,0.02,Rainwise IP-100,2013-04-21 16:37:00,
2013-04-21 09:42:00,45.4,43.0,30.23,SSW,202,0.0,1.9,93,0.00,,,0.02,Rainwise IP-100,2013-04-21 16:42:00,
2013-04-21 09:47:00,45.4,43.0,30.23,SSW,202,0.0,1.2,93,0.00,,,0.02,Rainwise IP-100,2013-04-21 16:47:00,
2013-04-21 09:52:00,45.5,44.0,30.23,SSW,202,0.0,0.0,94,0.00,,,0.02,Rainwise IP-100,2013-04-21 16:52:00,
2013-04-21 09:57:00,45.6,44.0,30.23,SSW,202,0.0,0.0,95,0.00,,,0.02,Rainwise IP-100,2013-04-21 16:57:00,
2013-04-21 10:02:00,45.7,44.0,30.23,SSW,202,0.0,0.0,95,0.00,,,0.02,Rainwise IP-100,2013-04-21 17:02:00,
2013-04-21 10:07:00,45.6,44.0,30.23,SSW,202,0.0,0.0,94,0.00,,,0.02,Rainwise IP-100,2013-04-21 17:07:00,
2013-04-21 10:12:00,45.5,44.0,30.23,South,180,0.0,1.6,94,0.00,,,0.02,Rainwise IP-100,2013-04-21 17:12:00,
2013-04-21 10:17:00,45.5,44.0,30.23,South,180,0.0,0.0,93,0.00,,,0.02,Rainwise IP-100,2013-04-21 17:17:00,
2013-04-21 10:22:00,45.7,44.0,30.23,South,180,1.2,2.6,94,0.00,,,0.02,Rainwise IP-100,2013-04-21 17:22:00,
2013-04-21 10:27:00,45.8,44.0,30.23,SSW,202,0.0,2.6,94,0.00,,,0.02,Rainwise IP-100,2013-04-21 17:27:00,
2013-04-21 10:32:00,45.9,44.0,30.24,SSW,202,0.0,1.2,93,0.00,,,0.02,Rainwise IP-100,2013-04-21 17:32:00,
2013-04-21 10:37:00,45.8,44.0,30.24,SSW,202,0.0,0.0,93,0.00,,,0.02,Rainwise IP-100,2013-04-21 17:37:00,
2013-04-21 10:42:00,45.8,44.0,30.24,SSW,202,0.0,1.4,93,0.00,,,0.02,Rainwise IP-100,2013-04-21 17:42:00,
2013-04-21 10:47:00,45.8,44.0,30.24,SSW,202,0.0,1.2,94,0.00,,,0.02,Rainwise IP-100,2013-04-21 17:47:00,
2013-04-21 10:52:00,45.8,44.0,30.24,SSW,202,0.0,1.2,94,0.00,,,0.02,Rainwise IP-100,2013-04-21 17:52:00,
2013-04-21 10:57:00,45.8,44.0,30.24,SSW,202,0.0,1.4,94,0.00,,,0.02,Rainwise IP-100,2013-04-21 17:57:00,
2013-04-21 11:02:00,46.0,44.0,30.24,SSW,202,0.0,0.0,95,0.00,,,0.02,Rainwise IP-100,2013-04-21 18:02:00,
2013-04-21 11:07:00,46.2,45.0,30.24,SSW,202,0.0,0.0,96,0.00,,,0.02,Rainwise IP-100,2013-04-21 18:07:00,
2013-04-21 11:12:00,46.3,45.0,30.24,SSW,202,0.0,0.0,96,0.00,,,0.02,Rainwise IP-100,2013-04-21 18:12:00,
2013-04-21 11:17:00,46.4,45.0,30.24,SSW,202,0.0,0.0,96,0.00,,,0.02,Rainwise IP-100,2013-04-21 18:17:00,
2013-04-21 11:22:00,46.4,45.0,30.24,SSW,202,0.0,0.0,96,0.00,,,0.02,Rainwise IP-100,2013-04-21 18:22:00,
2013-04-21 11:27:00,46.5,46.0,30.24,SSW,202,0.0,0.0,96,0.00,,,0.02,Rainwise IP-100,2013-04-21 18:27:00,
2013-04-21 11:32:00,46.8,46.0,30.24,SSW,202,0.0,0.0,96,0.00,,,0.02,Rainwise IP-100,2013-04-21 18:32:00,
2013-04-21 11:37:00,47.1,45.0,30.24,SSW,202,0.0,1.9,95,0.06,,,0.03,Rainwise IP-100,2013-04-21 18:37:00,
2013-04-21 11:42:00,47.4,47.0,30.24,SSW,202,0.0,0.0,96,0.06,,,0.03,Rainwise IP-100,2013-04-21 18:42:00,
2013-04-21 11:47:00,47.7,47.0,30.24,SSW,202,0.0,0.0,96,0.00,,,0.03,Rainwise IP-100,2013-04-21 18:47:00,
2013-04-21 11:52:00,47.8,47.0,30.24,SSW,202,0.0,0.0,95,0.00,,,0.03,Rainwise IP-100,2013-04-21 18:52:00,
2013-04-21 11:57:00,47.9,47.0,30.24,SSW,202,0.0,0.0,95,0.00,,,0.03,Rainwise IP-100,2013-04-21 18:57:00,
2013-04-21 12:02:00,47.8,47.0,30.24,SSW,202,0.0,0.0,95,0.00,,,0.03,Rainwise IP-100,2013-04-21 19:02:00,
2013-04-21 12:07:00,47.7,46.0,30.24,SSW,202,0.0,0.0,95,0.00,,,0.03,Rainwise IP-100,2013-04-21 19:07:00,
2013-04-21 12:12:00,47.6,47.0,30.25,SSW,202,0.0,0.0,97,0.00,,,0.03,Rainwise IP-100,2013-04-21 19:12:00,
2013-04-21 12:17:00,47.4,47.0,30.24,SSW,202,0.0,0.0,97,0.00,,,0.03,Rainwise IP-100,2013-04-21 19:17:00,
2013-04-21 12:22:00,47.4,47.0,30.24,SSW,202,0.0,0.0,97,0.00,,,0.03,Rainwise IP-100,2013-04-21 19:22:00,
2013-04-21 12:27:00,47.3,47.0,30.24,SSW,202,0.0,0.0,96,0.00,,,0.03,Rainwise IP-100,2013-04-21 19:27:00,
2013-04-21 12:32:00,47.4,47.0,30.24,SSW,202,0.0,1.2,96,0.00,,,0.03,Rainwise IP-100,2013-04-21 19:32:00,
2013-04-21 12:37:00,47.5,46.0,30.24,SSW,202,0.0,0.0,95,0.00,,,0.03,Rainwise IP-100,2013-04-21 19:37:00,
2013-04-21 12:42:00,47.5,46.0,30.25,SSW,202,0.0,0.0,95,0.00,,,0.03,Rainwise IP-100,2013-04-21 19:42:00,
2013-04-21 12:47:00,47.6,46.0,30.25,SSW,202,0.0,0.0,95,0.00,,,0.03,Rainwise IP-100,2013-04-21 19:47:00,
2013-04-21 12:52:00,47.8,47.0,30.25,SSW,202,0.0,0.0,95,0.00,,,0.03,Rainwise IP-100,2013-04-21 19:52:00,
2013-04-21 12:57:00,47.9,47.0,30.25,SSW,202,0.0,0.0,95,0.00,,,0.03,Rainwise IP-100,2013-04-21 19:57:00,
2013-04-21 13:02:00,48.1,47.5,30.25,SSW,202,0.0,0.0,96,0.00,,,0.03,Rainwise IP-100,2013-04-21 20:02:00,
2013-04-21 13:07:00,48.2,47.0,30.25,SSW,202,0.0,0.0,95,0.00,,,0.03,Rainwise IP-100,2013-04-21 20:07:00,
2013-04-21 13:12:00,48.2,47.5,30.25,SSW,202,0.0,0.0,96,0.00,,,0.03,Rainwise IP-100,2013-04-21 20:12:00,
2013-04-21 13:17:00,48.4,47.5,30.25,SSW,202,0.0,0.0,97,0.00,,,0.03,Rainwise IP-100,2013-04-21 20:17:00,
2013-04-21 13:22:00,48.6,48.0,30.24,SSW,202,0.0,0.0,97,0.00,,,0.03,Rainwise IP-100,2013-04-21 20:22:00,
2013-04-21 13:27:00,48.9,47.5,30.24,SSW,202,0.0,0.0,95,0.00,,,0.03,Rainwise IP-100,2013-04-21 20:27:00,
2013-04-21 13:32:00,49.1,47.5,30.24,SSW,202,0.0,1.2,93,0.00,,,0.03,Rainwise IP-100,2013-04-21 20:32:00,
2013-04-21 13:37:00,49.4,47.0,30.24,SSW,202,0.0,1.2,92,0.00,,,0.03,Rainwise IP-100,2013-04-21 20:37:00,
2013-04-21 13:42:00,49.7,47.5,30.25,SSW,202,0.0,0.0,91,0.00,,,0.03,Rainwise IP-100,2013-04-21 20:42:00,
2013-04-21 13:47:00,49.9,47.5,30.25,SSW,202,0.0,0.0,91,0.00,,,0.03,Rainwise IP-100,2013-04-21 20:47:00,
2013-04-21 13:52:00,50.0,47.5,30.24,SSW,202,0.0,0.0,92,0.00,,,0.03,Rainwise IP-100,2013-04-21 20:52:00,
2013-04-21 13:57:00,50.2,47.5,30.25,SSW,202,0.0,0.0,93,0.00,,,0.03,Rainwise IP-100,2013-04-21 20:57:00,
2013-04-21 14:02:00,50.3,49.0,30.25,SSW,202,0.0,0.0,94,0.00,,,0.03,Rainwise IP-100,2013-04-21 21:02:00,
2013-04-21 14:07:00,50.2,47.5,30.25,NW,315,0.0,2.1,92,0.00,,,0.03,Rainwise IP-100,2013-04-21 21:07:00,
2013-04-21 14:12:00,50.1,46.0,30.26,NNE,22,0.0,1.9,86,0.00,,,0.03,Rainwise IP-100,2013-04-21 21:12:00,
2013-04-21 14:17:00,50.3,47.0,30.26,West,270,0.0,0.0,86,0.00,,,0.03,Rainwise IP-100,2013-04-21 21:17:00,
2013-04-21 14:22:00,50.4,46.0,30.26,West,270,0.0,1.6,85,0.00,,,0.03,Rainwise IP-100,2013-04-21 21:22:00,
2013-04-21 14:27:00,50.4,46.0,30.26,West,270,0.0,1.2,84,0.00,,,0.03,Rainwise IP-100,2013-04-21 21:27:00,
2013-04-21 14:32:00,50.5,46.0,30.26,ESE,112,0.0,0.0,85,0.00,,,0.03,Rainwise IP-100,2013-04-21 21:32:00,
2013-04-21 14:37:00,50.5,47.0,30.26,ESE,112,0.0,0.0,86,0.00,,,0.03,Rainwise IP-100,2013-04-21 21:37:00,
2013-04-21 14:42:00,50.5,47.5,30.25,ESE,112,0.0,0.0,88,0.00,,,0.03,Rainwise IP-100,2013-04-21 21:42:00,
2013-04-21 14:47:00,50.5,47.5,30.26,ESE,112,0.0,0.0,88,0.00,,,0.03,Rainwise IP-100,2013-04-21 21:47:00,
2013-04-21 14:52:00,50.6,47.0,30.26,ESE,112,0.0,0.0,87,0.00,,,0.03,Rainwise IP-100,2013-04-21 21:52:00,
2013-04-21 14:57:00,50.9,47.0,30.26,ESE,112,0.0,0.0,85,0.00,,,0.03,Rainwise IP-100,2013-04-21 21:57:00,
2013-04-21 15:02:00,51.7,47.5,30.26,SW,225,0.0,0.0,84,0.00,,,0.03,Rainwise IP-100,2013-04-21 22:02:00,
2013-04-21 15:07:00,52.6,48.0,30.25,WNW,292,0.0,2.3,84,0.00,,,0.03,Rainwise IP-100,2013-04-21 22:07:00,
2013-04-21 15:12:00,53.5,48.0,30.26,NW,315,0.0,1.2,82,0.00,,,0.03,Rainwise IP-100,2013-04-21 22:12:00,
2013-04-21 15:17:00,54.6,49.0,30.25,North,0,0.0,1.9,81,0.00,,,0.03,Rainwise IP-100,2013-04-21 22:17:00,
2013-04-21 15:22:00,55.4,49.0,30.26,North,0,0.0,1.9,80,0.00,,,0.03,Rainwise IP-100,2013-04-21 22:22:00,
2013-04-21 15:27:00,55.5,49.0,30.25,NW,315,1.2,1.9,77,0.00,,,0.03,Rainwise IP-100,2013-04-21 22:27:00,
2013-04-21 15:32:00,55.8,48.0,30.25,NNW,337,0.0,3.0,75,0.00,,,0.03,Rainwise IP-100,2013-04-21 22:32:00,
2013-04-21 15:37:00,56.4,49.0,30.26,NNE,22,0.0,2.3,75,0.00,,,0.03,Rainwise IP-100,2013-04-21 22:37:00,
2013-04-21 15:42:00,56.9,50.0,30.25,WNW,292,0.0,0.0,76,0.00,,,0.03,Rainwise IP-100,2013-04-21 22:42:00,
2013-04-21 15:47:00,56.6,49.0,30.25,WNW,292,0.0,1.9,75,0.00,,,0.03,Rainwise IP-100,2013-04-21 22:47:00,
2013-04-21 15:52:00,56.2,47.5,30.25,WNW,292,0.0,1.4,74,0.00,,,0.03,Rainwise IP-100,2013-04-21 22:52:00,
2013-04-21 15:57:00,56.1,48.0,30.25,NE,45,1.6,1.6,76,0.00,,,0.03,Rainwise IP-100,2013-04-21 22:57:00,
2013-04-21 16:02:00,55.6,48.0,30.25,NE,45,0.0,1.9,76,0.00,,,0.03,Rainwise IP-100,2013-04-21 23:02:00,
2013-04-21 16:07:00,55.0,47.5,30.25,WNW,292,0.0,1.6,75,0.00,,,0.03,Rainwise IP-100,2013-04-21 23:07:00,
2013-04-21 16:12:00,54.4,47.0,30.25,NW,315,1.2,1.9,74,0.00,,,0.03,Rainwise IP-100,2013-04-21 23:12:00,
2013-04-21 16:17:00,54.3,47.0,30.25,NW,315,0.0,4.4,74,0.00,,,0.03,Rainwise IP-100,2013-04-21 23:17:00,
2013-04-21 16:22:00,54.2,47.0,30.25,NE,45,0.0,3.3,75,0.00,,,0.03,Rainwise IP-100,2013-04-21 23:22:00,
2013-04-21 16:27:00,53.8,46.0,30.25,WNW,292,0.0,2.1,73,0.00,,,0.03,Rainwise IP-100,2013-04-21 23:27:00,
2013-04-21 16:32:00,53.6,45.0,30.26,West,270,0.0,3.3,73,0.00,,,0.03,Rainwise IP-100,2013-04-21 23:32:00,
2013-04-21 16:37:00,53.4,45.0,30.26,NNW,337,0.0,1.9,73,0.00,,,0.03,Rainwise IP-100,2013-04-21 23:37:00,
2013-04-21 16:42:00,53.3,45.0,30.26,NW,315,0.0,3.3,72,0.00,,,0.03,Rainwise IP-100,2013-04-21 23:42:00,
2013-04-21 16:47:00,53.3,45.0,30.26,WNW,292,0.0,1.9,72,0.00,,,0.03,Rainwise IP-100,2013-04-21 23:47:00,
2013-04-21 16:52:00,53.2,43.0,30.25,North,0,0.0,1.9,71,0.00,,,0.03,Rainwise IP-100,2013-04-21 23:52:00,
2013-04-21 16:57:00,52.9,43.0,30.25,WNW,292,0.0,2.8,69,0.00,,,0.03,Rainwise IP-100,2013-04-21 23:57:00,
2013-04-21 17:02:00,52.7,43.0,30.25,NNW,337,0.0,3.5,69,0.00,,,0.03,Rainwise IP-100,2013-04-22 00:02:00,
2013-04-21 17:07:00,52.6,44.0,30.26,NNW,337,0.0,2.1,72,0.00,,,0.03,Rainwise IP-100,2013-04-22 00:07:00,
2013-04-21 17:12:00,52.6,45.0,30.26,NNE,22,0.0,1.9,74,0.00,,,0.03,Rainwise IP-100,2013-04-22 00:12:00,
2013-04-21 17:17:00,52.7,45.0,30.26,ENE,67,0.0,0.0,74,0.00,,,0.03,Rainwise IP-100,2013-04-22 00:17:00,
2013-04-21 17:22:00,52.9,44.0,30.26,North,0,0.0,3.7,73,0.00,,,0.03,Rainwise IP-100,2013-04-22 00:22:00,
2013-04-21 17:27:00,53.1,44.0,30.26,NNW,337,0.0,1.4,72,0.00,,,0.03,Rainwise IP-100,2013-04-22 00:27:00,
2013-04-21 17:32:00,53.1,44.0,30.26,NNW,337,0.0,1.4,73,0.00,,,0.03,Rainwise IP-100,2013-04-22 00:32:00,
2013-04-21 17:37:00,52.8,45.0,30.26,SSW,202,0.0,1.9,74,0.00,,,0.03,Rainwise IP-100,2013-04-22 00:37:00,
2013-04-21 17:42:00,52.5,45.0,30.26,WNW,292,1.4,0.0,74,0.00,,,0.03,Rainwise IP-100,2013-04-22 00:42:00,
2013-04-21 17:47:00,52.1,43.0,30.26,North,0,0.0,3.3,73,0.00,,,0.03,Rainwise IP-100,2013-04-22 00:47:00,
2013-04-21 17:52:00,52.0,43.0,30.26,West,270,1.4,1.9,73,0.00,,,0.03,Rainwise IP-100,2013-04-22 00:52:00,
2013-04-21 17:57:00,51.9,43.0,30.26,North,0,0.0,2.1,73,0.00,,,0.03,Rainwise IP-100,2013-04-22 00:57:00,
2013-04-21 18:02:00,51.7,44.0,30.26,WNW,292,0.0,2.3,74,0.00,,,0.03,Rainwise IP-100,2013-04-22 01:02:00,
2013-04-21 18:07:00,51.6,43.0,30.26,WSW,247,0.0,1.9,73,0.00,,,0.03,Rainwise IP-100,2013-04-22 01:07:00,
2013-04-21 18:12:00,51.5,43.0,30.27,North,0,0.0,2.1,73,0.00,,,0.03,Rainwise IP-100,2013-04-22 01:12:00,
2013-04-21 18:17:00,51.3,43.0,30.26,WNW,292,0.0,3.5,73,0.00,,,0.03,Rainwise IP-100,2013-04-22 01:17:00,
2013-04-21 18:22:00,51.0,43.0,30.26,NW,315,0.0,1.6,73,0.00,,,0.03,Rainwise IP-100,2013-04-22 01:22:00,
2013-04-21 18:27:00,50.9,43.0,30.26,NW,315,0.0,1.2,74,0.00,,,0.03,Rainwise IP-100,2013-04-22 01:27:00,
2013-04-21 18:32:00,50.9,43.0,30.26,NE,45,0.0,0.0,74,0.00,,,0.03,Rainwise IP-100,2013-04-22 01:32:00,
2013-04-21 18:37:00,50.9,44.0,30.26,NE,45,0.0,0.0,75,0.00,,,0.03,Rainwise IP-100,2013-04-22 01:37:00,
2013-04-21 18:42:00,50.7,43.0,30.26,West,270,2.1,2.1,76,0.00,,,0.03,Rainwise IP-100,2013-04-22 01:42:00,
2013-04-21 18:47:00,50.6,43.0,30.26,North,0,0.0,2.8,76,0.00,,,0.03,Rainwise IP-100,2013-04-22 01:47:00,
2013-04-21 18:52:00,50.4,43.0,30.27,NNE,22,0.0,1.2,76,0.00,,,0.03,Rainwise IP-100,2013-04-22 01:52:00,
2013-04-21 18:57:00,50.3,43.0,30.27,NNE,22,0.0,2.6,77,0.00,,,0.03,Rainwise IP-100,2013-04-22 01:57:00,
2013-04-21 19:02:00,50.2,43.0,30.27,NNE,22,0.0,0.0,78,0.00,,,0.03,Rainwise IP-100,2013-04-22 02:02:00,
2013-04-21 19:07:00,50.0,43.0,30.28,NNW,337,0.0,2.3,78,0.00,,,0.03,Rainwise IP-100,2013-04-22 02:07:00,
2013-04-21 19:12:00,49.7,43.0,30.27,East,90,0.0,1.9,79,0.00,,,0.03,Rainwise IP-100,2013-04-22 02:12:00,
2013-04-21 19:17:00,49.6,44.0,30.28,North,0,0.0,2.6,80,0.00,,,0.03,Rainwise IP-100,2013-04-22 02:17:00,
2013-04-21 19:22:00,49.4,43.0,30.28,NE,45,0.0,1.9,80,0.00,,,0.03,Rainwise IP-100,2013-04-22 02:22:00,
2013-04-21 19:27:00,49.2,43.0,30.28,North,0,0.0,1.6,80,0.00,,,0.03,Rainwise IP-100,2013-04-22 02:27:00,
2013-04-21 19:32:00,49.0,43.0,30.29,NW,315,0.0,1.2,79,0.00,,,0.03,Rainwise IP-100,2013-04-22 02:32:00,
2013-04-21 19:37:00,48.8,43.0,30.29,ENE,67,0.0,1.9,79,0.00,,,0.03,Rainwise IP-100,2013-04-22 02:37:00,
2013-04-21 19:42:00,48.6,43.0,30.29,ENE,67,0.0,1.4,80,0.00,,,0.03,Rainwise IP-100,2013-04-22 02:42:00,
2013-04-21 19:47:00,48.3,43.0,30.28,NNW,337,0.0,1.2,81,0.00,,,0.03,Rainwise IP-100,2013-04-22 02:47:00,
2013-04-21 19:52:00,48.2,43.0,30.29,NNE,22,0.0,1.4,81,0.00,,,0.03,Rainwise IP-100,2013-04-22 02:52:00,
2013-04-21 19:57:00,48.0,43.0,30.29,NNE,22,0.0,0.0,81,0.00,,,0.03,Rainwise IP-100,2013-04-22 02:57:00,
2013-04-21 20:02:00,47.8,43.0,30.29,NNE,22,0.0,1.4,81,0.00,,,0.03,Rainwise IP-100,2013-04-22 03:02:00,
2013-04-21 20:07:00,47.7,42.0,30.29,NNE,22,0.0,1.6,82,0.00,,,0.03,Rainwise IP-100,2013-04-22 03:07:00,
2013-04-21 20:12:00,47.6,42.0,30.30,NNE,22,0.0,1.2,82,0.00,,,0.03,Rainwise IP-100,2013-04-22 03:12:00,
2013-04-21 20:17:00,47.4,43.0,30.30,NNE,22,0.0,0.0,84,0.00,,,0.03,Rainwise IP-100,2013-04-22 03:17:00,
2013-04-21 20:22:00,47.3,43.0,30.30,WNW,292,0.0,1.6,84,0.00,,,0.03,Rainwise IP-100,2013-04-22 03:22:00,
2013-04-21 20:27:00,47.2,42.0,30.30,NNE,22,0.0,3.3,85,0.00,,,0.03,Rainwise IP-100,2013-04-22 03:27:00,
2013-04-21 20:32:00,47.1,42.0,30.30,NNE,22,1.2,1.2,84,0.00,,,0.03,Rainwise IP-100,2013-04-22 03:32:00,
2013-04-21 20:37:00,46.9,42.0,30.31,NW,315,0.0,1.2,85,0.00,,,0.03,Rainwise IP-100,2013-04-22 03:37:00,
2013-04-21 20:42:00,46.8,42.0,30.31,NW,315,0.0,0.0,85,0.00,,,0.03,Rainwise IP-100,2013-04-22 03:42:00,
2013-04-21 20:47:00,46.7,42.0,30.32,NW,315,0.0,0.0,85,0.00,,,0.03,Rainwise IP-100,2013-04-22 03:47:00,
2013-04-21 20:52:00,46.7,42.0,30.31,NW,315,0.0,1.4,85,0.00,,,0.03,Rainwise IP-100,2013-04-22 03:52:00,
2013-04-21 20:57:00,46.6,42.0,30.32,NW,315,0.0,1.9,84,0.00,,,0.03,Rainwise IP-100,2013-04-22 03:57:00,
2013-04-21 21:01:00,46.5,42.0,30.32,WNW,292,0.0,1.9,84,0.00,,,0.03,Rainwise IP-100,2013-04-22 04:01:00,
2013-04-21 21:05:00,46.5,42.0,30.32,WNW,292,0.0,1.4,83,0.00,,,0.03,Rainwise IP-100,2013-04-22 04:05:00,
2013-04-21 21:07:00,46.5,42.0,30.32,WNW,292,1.6,1.6,83,0.00,,,0.03,Rainwise IP-100,2013-04-22 04:07:00,
2013-04-21 21:13:00,46.5,42.0,30.33,WNW,292,0.0,1.9,83,0.00,,,0.03,Rainwise IP-100,2013-04-22 04:13:00,
2013-04-21 21:14:00,46.5,42.0,30.32,WNW,292,0.0,1.6,83,0.00,,,0.03,Rainwise IP-100,2013-04-22 04:14:00,
2013-04-21 21:19:00,46.5,41.0,30.32,North,0,0.0,1.9,82,0.00,,,0.03,Rainwise IP-100,2013-04-22 04:19:00,
2013-04-21 21:24:00,46.4,40.0,30.33,WNW,292,0.0,0.0,82,0.00,,,0.03,Rainwise IP-100,2013-04-22 04:24:00,
2013-04-21 21:29:00,46.4,40.0,30.33,NNE,22,0.0,2.8,81,0.00,,,0.03,Rainwise IP-100,2013-04-22 04:29:00,
2013-04-21 21:34:00,46.3,40.0,30.33,NNE,22,0.0,1.4,81,0.00,,,0.03,Rainwise IP-100,2013-04-22 04:34:00,
2013-04-21 21:39:00,46.3,40.0,30.34,NNE,22,0.0,0.0,81,0.00,,,0.03,Rainwise IP-100,2013-04-22 04:39:00,
2013-04-21 21:44:00,46.2,40.0,30.33,NNE,22,0.0,0.0,80,0.00,,,0.03,Rainwise IP-100,2013-04-22 04:44:00,
2013-04-21 21:49:00,46.1,40.0,30.33,North,0,0.0,0.0,80,0.00,,,0.03,Rainwise IP-100,2013-04-22 04:49:00,
2013-04-21 21:54:00,46.0,40.0,30.34,North,0,0.0,0.0,80,0.00,,,0.03,Rainwise IP-100,2013-04-22 04:54:00,
2013-04-21 21:59:00,45.9,40.0,30.34,North,0,0.0,0.0,80,0.00,,,0.03,Rainwise IP-100,2013-04-22 04:59:00,
2013-04-21 22:04:00,45.9,40.0,30.34,North,0,0.0,0.0,80,0.00,,,0.03,Rainwise IP-100,2013-04-22 05:04:00,
2013-04-21 22:09:00,45.9,40.0,30.34,North,0,0.0,0.0,80,0.00,,,0.03,Rainwise IP-100,2013-04-22 05:09:00,
2013-04-21 22:14:00,45.8,40.0,30.34,North,0,0.0,0.0,80,0.00,,,0.03,Rainwise IP-100,2013-04-22 05:14:00,
2013-04-21 22:19:00,45.6,40.0,30.34,North,0,0.0,0.0,81,0.00,,,0.03,Rainwise IP-100,2013-04-22 05:19:00,
2013-04-21 22:24:00,45.5,40.0,30.34,North,0,0.0,0.0,81,0.00,,,0.03,Rainwise IP-100,2013-04-22 05:24:00,
2013-04-21 22:29:00,45.3,39.0,30.34,North,0,0.0,0.0,81,0.00,,,0.03,Rainwise IP-100,2013-04-22 05:29:00,
2013-04-21 22:34:00,45.1,40.0,30.35,North,0,0.0,0.0,82,0.00,,,0.03,Rainwise IP-100,2013-04-22 05:34:00,
2013-04-21 22:39:00,44.8,40.0,30.35,North,0,0.0,0.0,82,0.00,,,0.03,Rainwise IP-100,2013-04-22 05:39:00,
2013-04-21 22:44:00,44.6,40.0,30.34,North,0,0.0,0.0,83,0.00,,,0.03,Rainwise IP-100,2013-04-22 05:44:00,
2013-04-21 22:49:00,44.6,40.0,30.35,North,0,0.0,0.0,83,0.00,,,0.03,Rainwise IP-100,2013-04-22 05:49:00,
2013-04-21 22:54:00,44.6,40.0,30.35,North,0,0.0,0.0,83,0.00,,,0.03,Rainwise IP-100,2013-04-22 05:54:00,
2013-04-21 22:59:00,44.5,40.0,30.35,North,0,0.0,0.0,83,0.00,,,0.03,Rainwise IP-100,2013-04-22 05:59:00,
2013-04-21 23:04:00,44.4,39.0,30.35,North,0,0.0,0.0,83,0.00,,,0.03,Rainwise IP-100,2013-04-22 06:04:00,
2013-04-21 23:09:00,44.2,39.0,30.35,North,0,0.0,0.0,83,0.00,,,0.03,Rainwise IP-100,2013-04-22 06:09:00,
2013-04-21 23:14:00,44.0,39.0,30.35,North,0,0.0,0.0,83,0.00,,,0.03,Rainwise IP-100,2013-04-22 06:14:00,
2013-04-21 23:19:00,43.8,39.0,30.35,North,0,0.0,0.0,83,0.00,,,0.03,Rainwise IP-100,2013-04-22 06:19:00,
2013-04-21 23:24:00,43.7,39.0,30.35,North,0,0.0,0.0,83,0.00,,,0.03,Rainwise IP-100,2013-04-22 06:24:00,
2013-04-21 23:29:00,43.5,39.0,30.35,North,0,0.0,0.0,83,0.00,,,0.03,Rainwise IP-100,2013-04-22 06:29:00,
2013-04-21 23:34:00,43.3,38.0,30.35,North,0,0.0,0.0,83,0.00,,,0.03,Rainwise IP-100,2013-04-22 06:34:00,
2013-04-21 23:39:00,43.3,38.0,30.36,North,0,0.0,0.0,82,0.00,,,0.03,Rainwise IP-100,2013-04-22 06:39:00,
2013-04-21 23:44:00,43.3,38.0,30.36,North,0,0.0,0.0,82,0.00,,,0.03,Rainwise IP-100,2013-04-22 06:44:00,
2013-04-21 23:49:00,43.3,38.0,30.36,North,0,0.0,0.0,82,0.00,,,0.03,Rainwise IP-100,2013-04-22 06:49:00,
2013-04-21 23:54:00,43.2,38.0,30.36,North,0,0.0,0.0,83,0.00,,,0.03,Rainwise IP-100,2013-04-22 06:54:00,
2013-04-21 23:59:00,43.1,38.0,30.36,North,0,0.0,0.0,83,0.00,,,0.03,Rainwise IP-100,2013-04-22 06:59:00,